Miscellaneous Local Product
Issued by NWS Hastings, NE

Home | Current Version | Previous Version | Text Only | Print | Product List | Glossary Off
Versions: 1 2 3 4 5 6 7 8 9 10 11 12 13 14 15 16 17 18 19 20 21 22 23 24 25 26 27 28 29 30 31 32 33 34 35 36 37 38 39 40 41 42 43 44 45 46 47 48 49 50

000
AXUS43 KGID 021102
MISGRI

GID CWA HOURLY WEATHER ROUNDUP
NATIONAL WEATHER SERVICE HASTINGS NE
600 AM CDT TUE SEP 02 2014

NOTE: "FAIR" INDICATES FEW OR NO CLOUDS BELOW 12,000 FEET WITH NO
SIGNIFICANT WEATHER AND/OR OBSTRUCTIONS TO VISIBILITY.

...SOUTH CENTRAL NEBRASKA...

CITY           SKY/WX    TMP DP  RH WIND       PRES   REMARKS
GRAND ISLAND   CLEAR     54  52  93 W7        29.99S
HASTINGS       CLEAR     54  51  90 CALM      29.99S
KEARNEY        CLEAR     54  52  94 CALM      30.00S
ORD            CLEAR     50  48  93 N5        29.97F
YORK           CLEAR     52 N/A N/A N5        29.98S
AURORA         CLEAR     53  53 100 NW3       29.98F
LEXINGTON      CLEAR     51  50  97 W5        30.01S FOG
HOLDREGE       CLEAR     54  53  95 CALM      30.00S
HEBRON         CLEAR     55  52  91 CALM      29.97S

...NEBRASKA PANHANDLE...

CITY           SKY/WX    TMP DP  RH WIND       PRES   REMARKS
CHADRON        CLEAR     44  42  93 SW6       30.02F
ALLIANCE       CLEAR     42  40  92 CALM      30.06S
SCOTTSBLUFF    CLEAR     42  41  96 N6        30.07S
SIDNEY         CLEAR     44  41  89 NW9       30.09F

...WESTERN AND NORTH CENTRAL NEBRASKA...

CITY           SKY/WX    TMP DP  RH WIND       PRES   REMARKS
VALENTINE      CLEAR     47  46  97 W6        30.00F
AINSWORTH      CLEAR     50  47  91 W9        30.01S
ONEILL         CLEAR     54  53  97 W7        29.97S
BROKEN BOW     CLEAR     52  50  93 N3        30.00S
IMPERIAL       CLEAR     53  49  86 W3        30.04S
NORTH PLATTE   CLEAR     46  45  96 NW3       30.02S FOG
MCCOOK         CLEAR     53  52  96 NW5       30.02S

...EASTERN NEBRASKA...

CITY           SKY/WX    TMP DP  RH WIND       PRES   REMARKS
NORFOLK        CLEAR     54  52  93 W5        29.95S
TEKAMAH        CLEAR     56  55  97 CALM      29.94S
ALBION         CLEAR     53  51  94 CALM      29.97S
OMAHA EPPLEY   CLEAR     60  56  86 CALM      29.95S
OFFUTT AFB     CLEAR     59  59 100 CALM      29.94F
MILLARD        CLEAR     59  57  92 CALM      29.94F
LINCOLN        CLEAR     58  55  90 CALM      29.97F
NEBRASKA CITY  CLEAR     58  58 100 W5        29.96R
BEATRICE       CLEAR     56  56 100 NW8       29.96S
FALLS CITY     CLEAR     60  59  96 N6        29.94R

...NORTHERN KANSAS...

CITY           SKY/WX    TMP DP  RH WIND       PRES   REMARKS
GOODLAND       CLEAR     54  52  93 SE3       30.06S
HILL CITY      CLEAR     58  55  90 CALM      30.00R
NORTON         SUNNY     55  52  88 CALM      29.99S
PHILLIPSBURG   CLEAR     57  57 100 N3        29.98S
SMITH CENTER   CLEAR     55  54  94 CALM      29.99R
HAYS           CLEAR     63  55  77 E7        30.00R
RUSSELL        PTCLDY    62  59  90 NE7       29.97R
CONCORDIA      CLEAR     58  58 100 W5        29.96R
SALINA         MOCLDY    68  63  84 NE6       29.94F
TOPEKA         FOG       67  67 100 NW3       29.93S VSB 1/4



USA.gov is the U.S. government's official web portal to all federal, state and local government web resources and services.